When you browse on this site, cookies collect data to enhance your experience and personalize the content and advertising you see.
Visit our Privacy Policy to learn more. By continuing to use the site, you agree to this use of cookies and data.
  • In United Kingdom
  • List of Countries
  • For 7 days
  • Water Temperature
  • Weather Map
  • Weather Widgets
  • user-avatar
    Login

    Hourly Weather Townsville

    Today, 16 September, Monday

    Time Temperature Precipitation Wind Pressure Humidity
    00:00 +18°C° 0 mm 3 mps 759 mmHg 87%
    01:00 +18°C° 0 mm 3 mps 758 mmHg 87%
    02:00 +18°C° 0 mm 3 mps 758 mmHg 87%
    03:00 +17°C° 0 mm 3 mps 758 mmHg 87%
    04:00 +17°C° 0 mm 3 mps 758 mmHg 87%
    05:00 +18°C° 0 mm 3 mps 759 mmHg 86%
    06:00 +18°C° 0 mm 3 mps 759 mmHg 85%
    07:00 +18°C° 0 mm 3 mps 759 mmHg 83%
    08:00 +20°C° 0 mm 4 mps 759 mmHg 74%
    09:00 +22°C° 0 mm 4 mps 759 mmHg 64%
    10:00 +25°C° 0 mm 5 mps 759 mmHg 56%
    11:00 +26°C° 0 mm 5 mps 759 mmHg 52%
    12:00 +27°C° 0 mm 5 mps 758 mmHg 48%
    13:00 +28°C° 0 mm 5 mps 757 mmHg 44%
    14:00 +27°C° 0 mm 5 mps 757 mmHg 47%
    15:00 +27°C° 0 mm 5 mps 757 mmHg 49%
    16:00 +26°C° 0 mm 5 mps 756 mmHg 50%
    17:00 +23°C° 0 mm 4 mps 757 mmHg 61%
    18:00 +21°C° 0 mm 4 mps 757 mmHg 71%
    19:00 +19°C° 0 mm 3 mps 757 mmHg 81%
    20:00 +18°C° 0 mm 3 mps 757 mmHg 83%
    21:00 +18°C° 0 mm 3 mps 758 mmHg 86%
    22:00 +17°C° 0 mm 2 mps 758 mmHg 88%
    23:00 +17°C° 0 mm 2 mps 758 mmHg 89%

    Tomorrow, 17 September, Tuesday

    Time Temperature Precipitation Wind Pressure Humidity
    00:00 +17°C° 0 mm 2 mps 758 mmHg 89%
    01:00 +17°C° 0 mm 2 mps 757 mmHg 90%
    02:00 +17°C° 0 mm 2 mps 757 mmHg 89%
    03:00 +17°C° 0 mm 2 mps 757 mmHg 88%
    04:00 +16°C° 0 mm 1 mps 757 mmHg 88%
    05:00 +18°C° 0 mm 1 mps 757 mmHg 85%
    06:00 +18°C° 0 mm 1 mps 757 mmHg 82%
    07:00 +19°C° 0 mm 1 mps 758 mmHg 79%
    08:00 +21°C° 0 mm 1 mps 758 mmHg 68%
    09:00 +24°C° 0 mm 2 mps 758 mmHg 56%
    10:00 +27°C° 0 mm 2 mps 758 mmHg 44%
    11:00 +27°C° 0 mm 3 mps 757 mmHg 42%
    12:00 +28°C° 0 mm 3 mps 757 mmHg 41%
    13:00 +28°C° 0 mm 3 mps 756 mmHg 39%
    14:00 +28°C° 0 mm 3 mps 756 mmHg 41%
    15:00 +27°C° 0 mm 3 mps 756 mmHg 43%
    16:00 +26°C° 0 mm 3 mps 755 mmHg 45%
    17:00 +24°C° 0 mm 3 mps 756 mmHg 54%
    18:00 +21°C° 0 mm 2 mps 756 mmHg 63%
    19:00 +19°C° 0 mm 2 mps 756 mmHg 72%
    20:00 +19°C° 0 mm 1 mps 757 mmHg 74%
    21:00 +19°C° 0 mm 1 mps 758 mmHg 77%
    22:00 +18°C° 0 mm 1 mps 758 mmHg 80%
    23:00 +18°C° 0 mm 1 mps 758 mmHg 81%

    Day after tomorrow, 18 September, Wednesday

    Time Temperature Precipitation Wind Pressure Humidity
    00:00 +18°C° 0 mm 1 mps 758 mmHg 81%
    01:00 +18°C° 0 mm 1 mps 757 mmHg 82%
    02:00 +16°C° 0 mm 1 mps 757 mmHg 83%
    03:00 +16°C° 0 mm 1 mps 757 mmHg 84%
    04:00 +16°C° 0 mm 1 mps 757 mmHg 85%
    05:00 +18°C° 0 mm 1 mps 757 mmHg 81%
    06:00 +18°C° 0 mm 1 mps 758 mmHg 78%
    07:00 +19°C° 0 mm 1 mps 758 mmHg 75%
    08:00 +22°C° 0 mm 1 mps 758 mmHg 62%
    09:00 +26°C° 0 mm 1 mps 758 mmHg 49%
    10:00 +29°C° 0 mm 1 mps 758 mmHg 37%
    11:00 +29°C° 0 mm 2 mps 757 mmHg 35%
    12:00 +30°C° 0 mm 3 mps 757 mmHg 34%
    13:00 +30°C° 0 mm 3 mps 756 mmHg 33%
    14:00 +29°C° 0 mm 3 mps 756 mmHg 37%
    15:00 +28°C° 0 mm 4 mps 755 mmHg 41%
    16:00 +27°C° 0 mm 4 mps 755 mmHg 45%
    17:00 +25°C° 0 mm 3 mps 755 mmHg 55%
    18:00 +23°C° 0 mm 2 mps 756 mmHg 64%
    19:00 +19°C° 0 mm 2 mps 756 mmHg 74%
    20:00 +19°C° 0 mm 2 mps 757 mmHg 77%
    21:00 +18°C° 0 mm 2 mps 757 mmHg 80%
    22:00 +19°C° 0 mm 1 mps 758 mmHg 84%
    23:00 +19°C° 0 mm 1 mps 757 mmHg 85%

    19 September, Thursday

    Time Temperature Precipitation Wind Pressure Humidity
    00:00 +18°C° 0 mm 1 mps 757 mmHg 85%
    01:00 +18°C° 0 mm 1 mps 756 mmHg 86%
    02:00 +18°C° 0 mm 1 mps 756 mmHg 87%
    03:00 +18°C° 0 mm 1 mps 756 mmHg 87%
    04:00 +18°C° 0 mm 1 mps 756 mmHg 88%
    05:00 +19°C° 0 mm 1 mps 757 mmHg 86%
    06:00 +19°C° 0 mm 1 mps 757 mmHg 84%
    07:00 +20°C° 0 mm 1 mps 757 mmHg 83%
    08:00 +22°C° 0 mm 1 mps 757 mmHg 73%
    09:00 +25°C° 0 mm 2 mps 757 mmHg 63%
    10:00 +27°C° 0 mm 3 mps 758 mmHg 53%
    11:00 +28°C° 0 mm 3 mps 757 mmHg 52%
    12:00 +28°C° 0 mm 4 mps 756 mmHg 50%
    13:00 +28°C° 0 mm 4 mps 755 mmHg 48%
    14:00 +28°C° 0 mm 4 mps 755 mmHg 50%
    15:00 +27°C° 0 mm 4 mps 755 mmHg 52%
    16:00 +27°C° 0 mm 4 mps 755 mmHg 54%
    17:00 +25°C° 0 mm 4 mps 755 mmHg 65%
    18:00 +22°C° 0 mm 3 mps 755 mmHg 76%
    19:00 +20°C° 0 mm 3 mps 756 mmHg 88%
    20:00 +20°C° 0 mm 3 mps 756 mmHg 88%
    21:00 +20°C° 0 mm 3 mps 757 mmHg 88%
    22:00 +19°C° 0 mm 3 mps 757 mmHg 89%
    23:00 +19°C° 0 mm 3 mps 757 mmHg 89%

    20 September, Friday

    Time Temperature Precipitation Wind Pressure Humidity
    00:00 +19°C° 0 mm 3 mps 756 mmHg 89%
    01:00 +19°C° 0 mm 4 mps 756 mmHg 89%
    02:00 +19°C° 0 mm 4 mps 756 mmHg 86%
    03:00 +20°C° 0 mm 4 mps 756 mmHg 84%
    04:00 +20°C° 0 mm 4 mps 756 mmHg 82%
    05:00 +20°C° 0 mm 4 mps 756 mmHg 80%
    06:00 +20°C° 0 mm 4 mps 756 mmHg 79%
    07:00 +21°C° 0 mm 4 mps 757 mmHg 78%
    08:00 +23°C° 0 mm 4 mps 757 mmHg 69%
    09:00 +25°C° 0 mm 5 mps 757 mmHg 61%
    10:00 +27°C° 0 mm 5 mps 757 mmHg 52%
    11:00 +28°C° 0 mm 5 mps 757 mmHg 50%
    12:00 +28°C° 0 mm 5 mps 756 mmHg 48%
    13:00 +28°C° 0 mm 6 mps 755 mmHg 46%
    14:00 +28°C° 0 mm 6 mps 755 mmHg 49%
    15:00 +27°C° 0 mm 6 mps 755 mmHg 51%
    16:00 +27°C° 0 mm 5 mps 755 mmHg 53%
    17:00 +25°C° 0 mm 5 mps 755 mmHg 63%
    18:00 +22°C° 0 mm 5 mps 756 mmHg 72%
    19:00 +20°C° 0 mm 4 mps 756 mmHg 81%
    20:00 +20°C° 0 mm 4 mps 756 mmHg 83%
    21:00 +19°C° 0 mm 4 mps 757 mmHg 86%
    22:00 +19°C° 0 mm 3 mps 757 mmHg 88%
    23:00 +19°C° 0 mm 3 mps 757 mmHg 89%

    21 September, Saturday

    Time Temperature Precipitation Wind Pressure Humidity
    00:00 +18°C° 0 mm 3 mps 757 mmHg 90%
    01:00 +18°C° 0 mm 3 mps 756 mmHg 91%
    02:00 +18°C° 0 mm 3 mps 756 mmHg 92%
    03:00 +18°C° 0 mm 3 mps 756 mmHg 92%
    04:00 +18°C° 0 mm 3 mps 756 mmHg 92%
    05:00 +18°C° 0 mm 3 mps 756 mmHg 91%
    06:00 +19°C° 0 mm 4 mps 756 mmHg 90%
    07:00 +19°C° 0 mm 4 mps 757 mmHg 89%
    08:00 +21°C° 0 mm 4 mps 757 mmHg 79%
    09:00 +25°C° 0 mm 5 mps 757 mmHg 68%
    10:00 +27°C° 0 mm 5 mps 757 mmHg 57%
    11:00 +27°C° 0 mm 5 mps 756 mmHg 55%
    12:00 +28°C° 0 mm 6 mps 756 mmHg 54%
    13:00 +29°C° 0 mm 6 mps 755 mmHg 52%
    14:00 +28°C° 0 mm 6 mps 755 mmHg 54%
    15:00 +27°C° 0 mm 6 mps 755 mmHg 57%
    16:00 +26°C° 0 mm 6 mps 755 mmHg 60%
    17:00 +25°C° 0 mm 5 mps 755 mmHg 68%
    18:00 +22°C° 0 mm 4 mps 755 mmHg 76%
    19:00 +21°C° 0 mm 4 mps 756 mmHg 85%
    20:00 +20°C° 0 mm 4 mps 756 mmHg 86%
    21:00 +20°C° 0 mm 3 mps 757 mmHg 88%
    22:00 +19°C° 0 mm 3 mps 757 mmHg 90%
    23:00 +19°C° 0.1 mm 3 mps 757 mmHg 91%
    Show more